When you browse on this site, cookies collect data to enhance your experience and personalize the content and advertising you see.
Visit our Privacy Policy to learn more. By continuing to use the site, you agree to this use of cookies and data.
  • In France
  • List of Countries
  • For 7 days
  • Water Temperature
  • Weather Map
  • Weather Widgets
  • user-avatar
    Login

    Hourly Weather Abomey

    Today, 21 September, Saturday

    Time Temperature Precipitation Wind Pressure Humidity
    00:00 +24°C° 0 mm 1 mps 739 mmHg 95%
    01:00 +24°C° 0 mm 1 mps 739 mmHg 96%
    02:00 +24°C° 0 mm 1 mps 739 mmHg 97%
    03:00 +24°C° 0 mm 1 mps 738 mmHg 98%
    04:00 +24°C° 0 mm 1 mps 739 mmHg 97%
    05:00 +24°C° 0 mm 1 mps 739 mmHg 97%
    06:00 +21°C° 0 mm 0 mps 740 mmHg 97%
    07:00 +25°C° 0 mm 1 mps 740 mmHg 91%
    08:00 +27°C° 0 mm 1 mps 741 mmHg 84%
    09:00 +28°C° 0 mm 2 mps 741 mmHg 78%
    10:00 +30°C° 0 mm 1 mps 740 mmHg 72%
    11:00 +32°C° 0 mm 1 mps 740 mmHg 66%
    12:00 +33°C° 0 mm 1 mps 739 mmHg 61%
    13:00 +33°C° 0 mm 1 mps 739 mmHg 61%
    14:00 +32°C° 0 mm 1 mps 738 mmHg 61%
    15:00 +32°C° 0 mm 1 mps 737 mmHg 62%
    16:00 +31°C° 0.2 mm 1 mps 737 mmHg 69%
    17:00 +29°C° 0.2 mm 1 mps 738 mmHg 76%
    18:00 +28°C° 0.2 mm 2 mps 738 mmHg 83%
    19:00 +27°C° 0.2 mm 2 mps 738 mmHg 86%
    20:00 +26°C° 0.2 mm 2 mps 739 mmHg 88%
    21:00 +26°C° 0.2 mm 2 mps 739 mmHg 91%
    22:00 +26°C° 0.3 mm 2 mps 739 mmHg 92%
    23:00 +25°C° 0.3 mm 2 mps 739 mmHg 93%

    Tomorrow, 22 September, Sunday

    Time Temperature Precipitation Wind Pressure Humidity
    00:00 +25°C° 0.3 mm 2 mps 739 mmHg 94%
    01:00 +25°C° 0 mm 2 mps 739 mmHg 94%
    02:00 +25°C° 0 mm 2 mps 738 mmHg 94%
    03:00 +24°C° 0 mm 2 mps 738 mmHg 95%
    04:00 +24°C° 0.1 mm 2 mps 738 mmHg 95%
    05:00 +24°C° 0.1 mm 2 mps 739 mmHg 95%
    06:00 +24°C° 0.1 mm 2 mps 739 mmHg 96%
    07:00 +25°C° 0 mm 2 mps 739 mmHg 91%
    08:00 +27°C° 0 mm 3 mps 740 mmHg 86%
    09:00 +28°C° 0 mm 3 mps 740 mmHg 82%
    10:00 +30°C° 0 mm 3 mps 739 mmHg 76%
    11:00 +31°C° 0 mm 3 mps 739 mmHg 69%
    12:00 +32°C° 0 mm 2 mps 738 mmHg 63%
    13:00 +32°C° 0 mm 2 mps 738 mmHg 64%
    14:00 +32°C° 0 mm 2 mps 738 mmHg 65%
    15:00 +32°C° 0 mm 2 mps 737 mmHg 65%
    16:00 +31°C° 0.3 mm 2 mps 737 mmHg 72%
    17:00 +29°C° 0.3 mm 3 mps 737 mmHg 78%
    18:00 +27°C° 0.3 mm 3 mps 737 mmHg 84%
    19:00 +27°C° 0 mm 2 mps 738 mmHg 86%
    20:00 +26°C° 0 mm 2 mps 738 mmHg 88%
    21:00 +25°C° 0 mm 2 mps 738 mmHg 90%
    22:00 +25°C° 0.1 mm 2 mps 739 mmHg 91%
    23:00 +25°C° 0.1 mm 2 mps 739 mmHg 92%

    Day after tomorrow, 23 September, Monday

    Time Temperature Precipitation Wind Pressure Humidity
    00:00 +25°C° 0.1 mm 3 mps 739 mmHg 92%
    01:00 +24°C° 0.2 mm 2 mps 739 mmHg 93%
    02:00 +24°C° 0.2 mm 2 mps 738 mmHg 94%
    03:00 +24°C° 0.2 mm 2 mps 738 mmHg 95%
    04:00 +24°C° 0.1 mm 2 mps 738 mmHg 95%
    05:00 +24°C° 0.1 mm 2 mps 739 mmHg 95%
    06:00 +24°C° 0.1 mm 3 mps 739 mmHg 95%
    07:00 +25°C° 0 mm 3 mps 739 mmHg 93%
    08:00 +25°C° 0 mm 3 mps 740 mmHg 90%
    09:00 +26°C° 0 mm 3 mps 740 mmHg 88%
    10:00 +27°C° 0 mm 2 mps 739 mmHg 83%
    11:00 +29°C° 0 mm 2 mps 739 mmHg 78%
    12:00 +30°C° 0 mm 2 mps 739 mmHg 73%
    13:00 +30°C° 0.2 mm 2 mps 738 mmHg 76%
    14:00 +29°C° 0.2 mm 1 mps 738 mmHg 80%
    15:00 +27°C° 0.2 mm 0 mps 738 mmHg 83%
    16:00 +26°C° 0.2 mm 0 mps 738 mmHg 85%
    17:00 +26°C° 0.2 mm 0 mps 738 mmHg 87%
    18:00 +27°C° 0.2 mm 1 mps 738 mmHg 89%
    19:00 +26°C° 0 mm 1 mps 739 mmHg 90%
    20:00 +26°C° 0 mm 1 mps 739 mmHg 91%
    21:00 +26°C° 0 mm 1 mps 739 mmHg 92%
    22:00 +25°C° 0.8 mm 1 mps 740 mmHg 94%
    23:00 +25°C° 0.8 mm 1 mps 740 mmHg 95%

    24 September, Tuesday

    Time Temperature Precipitation Wind Pressure Humidity
    00:00 +24°C° 0.8 mm 2 mps 740 mmHg 97%
    01:00 +24°C° 2.5 mm 1 mps 740 mmHg 97%
    02:00 +24°C° 2.5 mm 1 mps 739 mmHg 97%
    03:00 +22°C° 2.5 mm 0 mps 739 mmHg 97%
    04:00 +24°C° 0.2 mm 1 mps 739 mmHg 97%
    05:00 +24°C° 0.2 mm 1 mps 739 mmHg 97%
    06:00 +24°C° 0.2 mm 2 mps 739 mmHg 96%
    07:00 +25°C° 0 mm 2 mps 739 mmHg 95%
    08:00 +25°C° 0 mm 2 mps 739 mmHg 93%
    09:00 +26°C° 0 mm 2 mps 740 mmHg 92%
    10:00 +27°C° 0 mm 2 mps 739 mmHg 85%
    11:00 +29°C° 0 mm 2 mps 739 mmHg 78%
    12:00 +31°C° 0 mm 2 mps 738 mmHg 71%
    13:00 +31°C° 0 mm 2 mps 738 mmHg 72%
    14:00 +30°C° 0 mm 1 mps 738 mmHg 73%
    15:00 +30°C° 0 mm 1 mps 737 mmHg 74%
    16:00 +29°C° 1.4 mm 1 mps 737 mmHg 79%
    17:00 +28°C° 1.4 mm 1 mps 738 mmHg 84%
    18:00 +27°C° 1.4 mm 1 mps 738 mmHg 89%
    19:00 +26°C° 0.6 mm 1 mps 739 mmHg 91%
    20:00 +26°C° 0.6 mm 1 mps 739 mmHg 92%
    21:00 +26°C° 0.6 mm 1 mps 740 mmHg 94%
    22:00 +25°C° 1.4 mm 1 mps 740 mmHg 94%
    23:00 +25°C° 1.4 mm 1 mps 739 mmHg 94%

    25 September, Wednesday

    Time Temperature Precipitation Wind Pressure Humidity
    00:00 +25°C° 1.4 mm 2 mps 739 mmHg 95%
    01:00 +25°C° 1.1 mm 1 mps 739 mmHg 95%
    02:00 +25°C° 1.1 mm 1 mps 739 mmHg 95%
    03:00 +25°C° 1.1 mm 1 mps 739 mmHg 95%
    04:00 +25°C° 0.1 mm 1 mps 739 mmHg 95%
    05:00 +24°C° 0.1 mm 1 mps 739 mmHg 94%
    06:00 +24°C° 0.1 mm 1 mps 740 mmHg 94%
    07:00 +25°C° 0 mm 2 mps 740 mmHg 92%
    08:00 +26°C° 0 mm 2 mps 740 mmHg 91%
    09:00 +26°C° 0 mm 2 mps 741 mmHg 89%
    10:00 +27°C° 0 mm 2 mps 740 mmHg 85%
    11:00 +28°C° 0 mm 3 mps 739 mmHg 82%
    12:00 +28°C° 0 mm 3 mps 739 mmHg 78%
    13:00 +29°C° 0 mm 3 mps 738 mmHg 78%
    14:00 +29°C° 0 mm 2 mps 738 mmHg 77%
    15:00 +29°C° 0 mm 2 mps 737 mmHg 76%
    16:00 +28°C° 0 mm 2 mps 737 mmHg 80%
    17:00 +27°C° 0 mm 2 mps 738 mmHg 84%
    18:00 +26°C° 0 mm 2 mps 738 mmHg 88%
    19:00 +26°C° 0 mm 2 mps 738 mmHg 88%
    20:00 +26°C° 0 mm 2 mps 739 mmHg 89%
    21:00 +25°C° 0 mm 2 mps 740 mmHg 89%
    22:00 +25°C° 0 mm 2 mps 740 mmHg 90%
    23:00 +25°C° 0 mm 2 mps 740 mmHg 91%

    26 September, Thursday

    Time Temperature Precipitation Wind Pressure Humidity
    00:00 +25°C° 0 mm 2 mps 740 mmHg 91%
    01:00 +24°C° 0 mm 2 mps 739 mmHg 92%
    02:00 +24°C° 0 mm 2 mps 739 mmHg 93%
    03:00 +24°C° 0 mm 2 mps 739 mmHg 93%
    04:00 +24°C° 0 mm 2 mps 740 mmHg 93%
    05:00 +24°C° 0 mm 2 mps 740 mmHg 93%
    06:00 +24°C° 0 mm 2 mps 741 mmHg 93%
    07:00 +25°C° 0 mm 2 mps 741 mmHg 90%
    08:00 +26°C° 0 mm 2 mps 741 mmHg 86%
    09:00 +27°C° 0 mm 2 mps 741 mmHg 83%
    10:00 +28°C° 0 mm 2 mps 741 mmHg 77%
    11:00 +30°C° 0 mm 2 mps 740 mmHg 71%
    12:00 +31°C° 0 mm 2 mps 739 mmHg 65%
    13:00 +31°C° 0 mm 2 mps 739 mmHg 66%
    14:00 +31°C° 0 mm 2 mps 738 mmHg 67%
    15:00 +31°C° 0 mm 2 mps 738 mmHg 67%
    16:00 +30°C° 1.6 mm 2 mps 738 mmHg 74%
    17:00 +28°C° 1.6 mm 2 mps 738 mmHg 81%
    18:00 +27°C° 1.6 mm 2 mps 738 mmHg 88%
    19:00 +26°C° 0.3 mm 2 mps 739 mmHg 89%
    20:00 +26°C° 0.3 mm 2 mps 739 mmHg 91%
    21:00 +25°C° 0.3 mm 2 mps 740 mmHg 92%
    22:00 +25°C° 0 mm 2 mps 740 mmHg 93%
    23:00 +25°C° 0 mm 2 mps 740 mmHg 94%
    Show more